Location: Bothwell
(41.7170°N, 112.2589°W)
Time: 01:14:59
(UTC+00:00)

STARLINK-37167 - Pass Details

Date: 19 April 2026
Orbit: 264 x 266 km, 97.3° (Epoch: 18 April)

Event Time Altitude Azimuth Distance (km) Brightness Sun altitude
Rises 04:07:14 0° 11° (N) 1,907 5.7 -19.8°
Reaches altitude 10° 04:09:04 10° 10° (N) 1,091 4.5 -20.1°
Enters shadow 04:09:15 12° 10° (N) 1,007 4.3 -20.1°
